Tracking 19720 objects as of 26-Jun-2019
HD Live streaming from Space Station
objects crossing your sky now

ANIK A2 (TELESAT 2)

Track ANIK A2 (TELESAT 2) now!
ANIK A2 (TELESAT 2) is classified as:


NORAD ID: 6437
Int'l Code: 1973-023A
Perigee: 35,872.2 km
Apogee: 35,983.7 km
Inclination: 12.5 °
Period: 1,443.0 minutes
Semi major axis: 42298 km
RCS: 3.1458 m2 (large)
Launch date: April 20, 1973
Source: Canada (CA)
Launch site: AIR FORCE EASTERN TEST RANGE (AFETR)
aabbcc
Your satellite tracking list
Your tracking list is empty




NASA's NSSDC Master Catalog

Two Line Element Set (TLE):
1  6437U 73023A   19175.99677826  .00000122  00000-0  00000+0 0  9996
2  6437  12.4531 321.5429 0013175  11.0783 341.8276  0.99794887 94871
Source of the keplerian elements: AFSPC